Weather History for YCIN - June, 2012

Change the Weather History Date:

Thursday, June 28, 2012

  Actual Average Record
Temperature  
Mean Temperature 66 °F -  
Max Temperature 85 °F - - ()
Min Temperature 48 °F - - ()
Cooling Degree Days 2    
Growing Degree Days 16 (Base 50)    
Moisture  
Dew Point 37 °F    
Average Humidity 32    
Maximum Humidity 58    
Minimum Humidity 10    
Precipitation  
Precipitation 0.00 in - - ()
Sea Level Pressure  
Sea Level Pressure 29.97 in    
Wind  
Wind Speed 5 mph ()    
Max Wind Speed 8 mph    
Max Gust Speed -    
T = Trace of Precipitation, MM = Missing Value Source: Averaged Metar Reports

Daily Weather History Graph

Daily Weather History Graph

Search for Another Location

Airport or City:

Trip Planner

Search our weather history database for the weather conditions in past years. The results will help you decide how hot, cold, wet, or windy it might be!

Date:

Astronomy

Jun. 28, 2012 Rise Set
Actual Time 6:15 AM AWST 5:20 PM AWST
Civil Twilight 5:51 AM AWST 5:44 PM AWST
Nautical Twilight 5:24 AM AWST 6:11 PM AWST
Astronomical Twilight 4:57 AM AWST 6:38 PM AWST
Moon 12:14 PM AWST (6/28) 12:14 AM AWST (6/28)
Length of Visible Light 11h 52m
Length of Day
11h 05m
First Quarter, 61% of the Moon is Illuminated
Jun 28
First Quarter
Jul 4
Full
Jul 11
Last Quarter
Jul 19
New
Jul 26
First Quarter

Hourly Weather History & Observations

Time (AWST) Temp. Dew Point Humidity Pressure Visibility Wind Dir Wind Speed Gust Speed Precip Events Conditions
12:00 AM 50 °F 35 °F 45% 30.01 in - WSW 4.6 mph - -  
12:00 AM 50.0 °F 35.6 °F 58% 30.01 in - WSW 4.6 mph - N/A   Unknown
1:00 AM 50.0 °F 35.6 °F 58% 30.01 in - SSW 2.3 mph - N/A   Unknown
2:00 AM 50.0 °F 35.6 °F 58% 29.98 in - South 2.3 mph - N/A   Unknown
3:00 AM 60 °F 33 °F 24% 29.97 in - SE 8.1 mph - -  
3:00 AM 60.8 °F 33.8 °F 36% 29.98 in - SE 8.1 mph - N/A   Unknown
4:00 AM 59.0 °F 33.8 °F 39% 29.98 in - SE 8.1 mph - N/A   Unknown
5:00 AM 59.0 °F 33.8 °F 39% 29.98 in - SE 8.1 mph - N/A   Unknown
6:00 AM 57 °F 34 °F 30% 30.00 in - SE 8.1 mph - -  
6:00 AM 57.2 °F 33.8 °F 41% 30.01 in - SE 8.1 mph - N/A   Unknown
7:00 AM 57.2 °F 35.6 °F 44% 30.01 in - ESE 6.9 mph - N/A   Unknown
8:00 AM 66.2 °F 37.4 °F 35% 30.01 in - ESE 6.9 mph - N/A   Unknown
9:00 AM 72 °F 40 °F 21% 30.02 in - ESE 6.9 mph - -  
9:00 AM 71.6 °F 41.0 °F 33% 30.01 in - ESE 6.9 mph - N/A   Unknown
10:00 AM 77.0 °F 41.0 °F 28% 30.01 in - SSE 5.8 mph - N/A   Unknown
11:00 AM 80.6 °F 41.0 °F 24% 29.98 in - ESE 5.8 mph - N/A   Unknown
12:00 PM 82 °F 39 °F 12% 29.95 in - ESE 5.8 mph - -  
12:00 PM 82.4 °F 39.2 °F 21% 29.95 in - ESE 5.8 mph - N/A   Unknown
1:00 PM 82.4 °F 37.4 °F 20% 29.92 in - South 6.9 mph - N/A   Unknown
2:00 PM 84.2 °F 35.6 °F 18% 29.89 in - South 6.9 mph - N/A   Unknown
3:00 PM 84 °F 36 °F 10% 29.90 in - SSE 8.1 mph - -  
3:00 PM 84.2 °F 35.6 °F 18% 29.89 in - SSE 8.1 mph - N/A   Unknown
4:00 PM 84.2 °F 35.6 °F 18% 29.89 in - SSE 8.1 mph - N/A   Unknown
5:00 PM 80.6 °F 39.2 °F 23% 29.92 in - SE 4.6 mph - N/A   Unknown
6:00 PM 68 °F 39 °F 23% 29.94 in - SE 3.5 mph - -  
6:00 PM 68.0 °F 39.2 °F 35% 29.95 in - SE 3.5 mph - N/A   Unknown
7:00 PM 62.6 °F 39.2 °F 42% 29.95 in - SE 5.8 mph - N/A   Unknown
8:00 PM 64.4 °F 39.2 °F 40% 29.95 in - ESE 5.8 mph - N/A   Unknown
9:00 PM 67 °F 37 °F 22% 29.96 in - ESE 5.8 mph - -  
9:00 PM 66.2 °F 37.4 °F 35% 29.95 in - ESE 5.8 mph - N/A   Unknown
10:00 PM 66.2 °F 35.6 °F 32% 29.95 in - SE 5.8 mph - N/A   Unknown
11:00 PM 62.6 °F 35.6 °F 37% 29.95 in - SE 5.8 mph - N/A   Unknown